Simultaneous Nadir Overpasses (SNOs) Predictions

Prediction of SNOs between LANDSAT-8 and NPP Satellite Orbit:

Table of predicted SNOs for the next 14.0 days since TLE Epoch: 10/31/2014
Index Date (LANDSAT-8) Time (LANDSAT-8) Lat,Lon (LANDSAT-8) SZA (LANDSAT-8 ) Date (NPP) Time (NPP) Lat,Lon (NPP) SZA (NPP ) Distance(km) Time Diff (sec)
1 10/31/2014 17:28:44 70.82, -84.68 84.97 10/31/2014 17:28:13 70.85, -84.70 84.99 2.83 31
2 10/31/2014 18:18:14 -70.71, 82.78 95.14 10/31/2014 18:18:54 -70.70, 82.86 95.14 3.03 40
3 11/03/2014 08:55:42 -71.33,-135.67 93.68 11/03/2014 08:54:32 -71.41,-137.20 93.61 55.16 70
4 11/03/2014 09:45:17 70.80, 31.14 85.79 11/03/2014 09:45:06 70.78, 31.17 85.78 2.12 11
5 11/03/2014 10:34:47 -70.69,-161.39 94.31 11/03/2014 10:35:48 -70.69,-161.35 94.31 1.57 61
6 11/06/2014 01:12:28 -70.86, -20.56 93.34 11/06/2014 01:11:17 -70.88, -20.53 93.32 2.28 71
7 11/06/2014 02:01:55 70.77, 146.93 86.58 11/06/2014 02:02:01 70.78, 146.95 86.59 1.62 6
8 11/06/2014 02:51:28 -70.50, -45.83 93.68 11/06/2014 02:52:40 -70.52, -45.32 93.66 19.23 72
9 11/08/2014 17:29:09 -70.88, 95.28 92.54 11/08/2014 17:28:12 -70.88, 95.24 92.53 1.74 57
10 11/08/2014 18:18:36 70.78, -97.22 87.38 11/08/2014 18:18:56 70.78, -97.29 87.38 2.44 20
11 11/08/2014 19:08:18 -70.03, 69.31 93.38 11/08/2014 19:09:26 -70.05, 71.19 93.34 71.40 68
12 11/11/2014 09:45:55 -70.83,-148.98 91.83 11/11/2014 09:45:06 -70.83,-148.92 91.83 2.36 49
13 11/11/2014 10:35:22 70.73, 18.52 88.08 11/11/2014 10:35:50 70.74, 18.55 88.09 1.37 28
14 11/14/2014 02:02:43 -70.82, -33.19 91.12 11/14/2014 02:02:00 -70.85, -33.17 91.09 2.54 43
15 11/14/2014 02:52:10 70.73, 134.31 88.80 11/14/2014 02:52:44 70.75, 134.29 88.83 2.55 34




NCC Satellite Simultaneous Nadir Overpasses (SNOs) Prediction Service
